Regional Weather Roundup
Issued by NWS

Home | Current Version | Previous Version | Graphics & Text | Print | Product List | Glossary On
Versions: 1 2 3 4 5 6 7 8 9 10 11 12 13 14 15 16 17 18 19 20 21 22 23 24 25 26 27 28 29 30 31 32 33 34 35 36 37 38 39 40 41 42 43 44 45 46 47 48 49 50
000
ASUS43 KLSX 172057
RWRMO

WEATHER SUMMARY FOR MISSOURI
NATIONAL WEATHER SERVICE SPRINGFIELD MO
300 PM CST FRI NOV 17 2017

NOTE: "FAIR" INDICATES FEW OR NO CLOUDS BELOW 12,000 FEET WITH NO
       SIGNIFICANT WEATHER AND/OR OBSTRUCTIONS TO VISIBILITY.
       CURRENT SKY AND/OR WEATHER CONDITIONS ARE NOT AVAILABLE FOR
       CHILLICOTHE AND FARMINGTON.

MOZ001>031-035>038-043-044-053-054-172200-
...NORTHERN AND WESTERN MISSOURI...

CITY           SKY/WX    TMP DP  RH WIND       PRES   REMARKS
KANSAS CTY INT CLOUDY    68  58  70 S18G25    29.51F
LEE`S SUMMIT   CLOUDY    67  61  81 S13       29.53F
ST JOSEPH      CLOUDY    65  57  75 S6        29.51F
CHILLICOTHE      N/A     59  57  93 S8        29.55F
KIRKSVILLE     CLOUDY    54  52  94 S9        29.59F FOG

$$
MOZ066>068-077>081-088>096-101>105-172200-
...SOUTHWEST MISSOURI...

CITY           SKY/WX    TMP DP  RH WIND       PRES   REMARKS
SPRINGFIELD    CLOUDY    65  59  81 S18       29.63F
JOPLIN         MOSUNNY   71  63  75 S18G32    29.58F
BRANSON        CLOUDY    64  59  82 S14       29.71F

$$
MOZ032>034-039>042-045>050-055>058-069>072-172200-
...CENTRAL MISSOURI...

CITY           SKY/WX    TMP DP  RH WIND       PRES   REMARKS
COLUMBIA       NOT AVBL
JEFFERSON CITY CLOUDY    64  54  69 S9        29.64F
ROLLA          CLOUDY    60  54  80 S17G25    29.69F
SEDALIA        CLOUDY    65  59  81 S23G32    29.57F
WARRENSBURG    CLOUDY    64  55  72 S16       29.54F

$$
MOZ051-052-059>065-172200-
...EAST CENTRAL MISSOURI...

CITY           SKY/WX    TMP DP  RH WIND       PRES   REMARKS
ST LOUIS INTL  PTSUNNY   54  44  69 SE13      29.74F

$$
MOZ072>076-082>087-097>100-106>115-172200-
...SOUTH CENTRAL AND SOUTHEAST MISSOURI...

CITY           SKY/WX    TMP DP  RH WIND       PRES   REMARKS
CAPE GIRARDEAU CLOUDY    56  47  71 SE10      29.85F
POPLAR BLUFF   CLOUDY    63  52  67 S9        29.82F
WEST PLAINS    CLOUDY    60  55  83 S16G24    29.77F

$$



USA.gov is the U.S. government's official web portal to all federal, state and local government web resources and services.